Weather History for KHUT - February, 2013

Change the Weather History Date:

Thursday, February 14, 2013

  Actual Average Record
Temperature  
Mean Temperature 39 °F -  
Max Temperature 48 °F 46 °F 69 °F (2005)
Min Temperature 30 °F 23 °F 1 °F (2007)
Degree Days  
Heating Degree Days 26    
Moisture  
Dew Point 24 °F    
Average Humidity 58    
Maximum Humidity 79    
Minimum Humidity 42    
Precipitation  
Precipitation 0.00 in - - ()
Sea Level Pressure  
Sea Level Pressure 30.11 in    
Wind  
Wind Speed 9 mph (NW)    
Max Wind Speed 18 mph    
Max Gust Speed 25 mph    
Visibility 10 miles    
Events      
Averages and records for this station are not official NWS values.
T = Trace of Precipitation, MM = Missing Value Source: NWS Daily Summary

Daily Weather History Graph

Daily Weather History Graph

Search for Another Location

Airport or City:

Trip Planner

Search our weather history database for the weather conditions in past years. The results will help you decide how hot, cold, wet, or windy it might be!

Date:

Astronomy

Feb. 14, 2013 Rise Set
Actual Time 7:22 AM CST 6:09 PM CST
Civil Twilight 6:55 AM CST 6:36 PM CST
Nautical Twilight 6:24 AM CST 7:07 PM CST
Astronomical Twilight 5:53 AM CST 7:37 PM CST
Moon 9:30 AM CST (2/14) 11:07 PM CST (2/14)
Length of Visible Light 11h 41m
Length of Day
10h 47m
Waxing Crescent, 22% of the Moon is Illuminated
Feb 14
Waxing Crescent
Feb 17
First Quarter
Feb 25
Full
Mar 4
Last Quarter
Mar 11
New

Hourly Weather History & Observations

Time (CST) Temp. Windchill Dew Point Humidity Pressure Visibility Wind Dir Wind Speed Gust Speed Precip Events Conditions
12:52 AM 35.1 °F 28.6 °F 23.0 °F 61% 29.93 in 10.0 mi WNW 8.1 mph - N/A   Clear
1:52 AM 30.9 °F 24.3 °F 21.0 °F 67% 29.94 in 10.0 mi West 6.9 mph - N/A   Clear
2:52 AM 34.0 °F 25.5 °F 21.9 °F 61% 29.95 in 10.0 mi NW 11.5 mph - N/A   Clear
3:52 AM 33.1 °F 25.5 °F 23.0 °F 66% 29.96 in 10.0 mi NW 9.2 mph - N/A   Clear
4:52 AM 34.0 °F 26.0 °F 23.0 °F 64% 29.98 in 10.0 mi WNW 10.4 mph - N/A   Clear
5:52 AM 30.0 °F 22.4 °F 23.0 °F 75% 30.01 in 10.0 mi NW 8.1 mph - N/A   Clear
6:52 AM 30.0 °F 23.2 °F 24.1 °F 79% 30.03 in 10.0 mi WNW 6.9 mph - N/A   Clear
7:52 AM 30.9 °F 26.2 °F 25.0 °F 79% 30.06 in 10.0 mi NW 4.6 mph - N/A   Clear
8:52 AM 34.0 °F 28.8 °F 27.0 °F 75% 30.08 in 10.0 mi WNW 5.8 mph - N/A   Clear
9:52 AM 37.9 °F 32.1 °F 28.9 °F 70% 30.10 in 10.0 mi NW 8.1 mph - N/A   Partly Cloudy
10:52 AM 44.1 °F 40.1 °F 30.0 °F 58% 30.11 in 10.0 mi NW 6.9 mph - N/A   Clear
11:52 AM 46.0 °F 41.0 °F 28.9 °F 51% 30.11 in 10.0 mi NNW 10.4 mph - N/A   Scattered Clouds
12:52 PM 46.9 °F - 30.0 °F 52% 30.11 in 10.0 mi NNW 10.4 mph - N/A   Scattered Clouds
1:52 PM 48.9 °F - 28.0 °F 44% 30.11 in 10.0 mi North 9.2 mph - N/A   Partly Cloudy
2:52 PM 48.0 °F - 26.1 °F 42% 30.11 in 10.0 mi North 13.8 mph - N/A   Overcast
3:52 PM 46.9 °F - 25.0 °F 42% 30.13 in 10.0 mi NNW 12.7 mph - N/A   Overcast
4:52 PM 45.0 °F 38.5 °F 27.0 °F 49% 30.15 in 10.0 mi NW 13.8 mph - N/A   Overcast
5:52 PM 44.1 °F 40.1 °F 23.0 °F 43% 30.17 in 10.0 mi NW 6.9 mph - N/A   Partly Cloudy
6:52 PM 37.9 °F 32.7 °F 23.0 °F 55% 30.19 in 10.0 mi WNW 6.9 mph - N/A   Partly Cloudy
7:52 PM 36.0 °F 29.6 °F 24.1 °F 62% 30.22 in 10.0 mi NW 8.1 mph - N/A   Scattered Clouds
8:52 PM 39.9 °F 30.8 °F 21.9 °F 49% 30.25 in 10.0 mi NNW 18.4 mph 24.2 mph N/A   Mostly Cloudy
9:52 PM 37.9 °F 29.2 °F 18.0 °F 45% 30.27 in 10.0 mi NNW 15.0 mph 24.2 mph N/A   Mostly Cloudy
10:52 PM 35.1 °F 26.4 °F 16.0 °F 46% 30.28 in 10.0 mi North 12.7 mph 24.2 mph N/A   Clear
11:52 PM 30.9 °F 19.4 °F 16.0 °F 54% 30.32 in 10.0 mi NNW 17.3 mph 25.3 mph N/A   Clear